COSMOS 1275 DEB, 12658

Orbit data source: Space-Track

COSMOS 1275 DEB, 12658 is space debris in LEO originally from a launch on Thu, 04 Jun 1981 UTC launched from the Plesetsk Missile And Space Complex (PKMTR). Debris objects in space refer to the collection of defunct objects orbiting the Earth. Examples of debris include non-operational satellites, rocket bodies, and fragments generated from explosions, collisions, or faulty payload assembly.

Loading next visibility...
Identifier
12658, 1981-053N
Orbit
LEO
Country
Flag of CISCIS
Related business
Manufacturer
Unknown
Mission
Spacecraft
Bus & Motor
Unknown
Mass
Unknown
Launch date (UTC)
1981-06-04 (44 years ago)
Launch vehicle
Unknown
Launch site
Plesetsk Missile And Space Complex (PKMTR)
Object type
Payload
Rocket body
Debris
Shape & HBR
Unknown shape, 0.2 m
Radar Cross Section
Small (<0.1 m²)

Expand to show TLE details & history
Last TLE update: 15 hours ago

TLE from 15 hours ago
0 COSMOS 1275 DEB
1 12658U 81053N   25286.93528477  .00004941  00000-0  19752-2 0  9991
2 12658  82.9716 341.1653 0038907 113.9215  59.6110 14.27854296255067
Epoch: 2025-10-13T22:26Z
TLE epoch observation values (Epoch: 2025-10-13T22:26:48.604Z)
Latitude
5.9554°
Longitude
160.99887°
Altitude
787.263 km
Speed
7.468 km/s
True Right ascension
10h 41m 43s
True Declination
5° 55' 13"
Sunlit
Object was in daylight at epoch
Visualization orbit readout
Latitude
Unknown
Longitude
Unknown
Altitude
Unknown
Speed
Unknown
Apparent Right ascension
Unknown
Apparent Declination
Unknown
Sunlit
N/A
Visualization observer readout
Local Sidereal Time
08:02:29
Azimuth
Unknown
Elevation
Unknown
Doppler factor
Unknown
Orbital elements
Apogee altitude
823.899 km
Perigee altitude
768.074 km
Semi-major axis
7,174.124 km
Eccentricity
0.00389
Inclination
82.9716°
RAAN
341.1653°
Arg. of periapsis
113.9215°
True anomaly
59.99653°
Mean anomaly
59.611°
Eccentric anomaly
59.80367°
Mean motion
3.57182 °/min
Orbital period
100.79 mins
BSTAR
0.0019752
Loading maneuver chart data...
Computing Atmospheric mass density...

Documentation

Showing up to 5 results
|